When you browse on this site, cookies collect data to enhance your experience and personalize the content and advertising you see.
Visit our Privacy Policy to learn more. By continuing to use the site, you agree to this use of cookies and data.
  • In Lithuania
  • List of Countries
  • For 7 days
  • Water Temperature
  • Satellite Maps
  • Weather Map
  • Weather Widgets
  • user-avatar
    Login

    Hourly Weather Konstantyna

    Today, 22 February, Friday

    Time Temperature Precipitation Wind Pressure Humidity
    00:00 +8°C° 0 mm 0 mps 718 mmHg 93%
    01:00 +8°C° 0 mm 1 mps 717 mmHg 92%
    02:00 +8°C° 0 mm 1 mps 717 mmHg 91%
    03:00 +7°C° 0 mm 1 mps 717 mmHg 90%
    04:00 +6°C° 0 mm 1 mps 717 mmHg 91%
    05:00 +6°C° 0 mm 1 mps 717 mmHg 92%
    06:00 +5°C° 0 mm 1 mps 717 mmHg 94%
    07:00 +7°C° 0 mm 1 mps 717 mmHg 85%
    08:00 +8°C° 0 mm 1 mps 717 mmHg 76%
    09:00 +10°C° 0 mm 1 mps 717 mmHg 67%
    10:00 +10°C° 0 mm 2 mps 717 mmHg 61%
    11:00 +13°C° 0 mm 2 mps 717 mmHg 56%
    12:00 +13°C° 0 mm 3 mps 717 mmHg 50%
    13:00 +13°C° 0 mm 3 mps 716 mmHg 51%
    14:00 +13°C° 0 mm 4 mps 716 mmHg 52%
    15:00 +13°C° 0 mm 4 mps 716 mmHg 52%
    16:00 +11°C° 0 mm 3 mps 715 mmHg 61%
    17:00 +9°C° 0 mm 2 mps 715 mmHg 69%
    18:00 +7°C° 0 mm 2 mps 714 mmHg 77%
    19:00 +7°C° 0 mm 1 mps 714 mmHg 81%
    20:00 +7°C° 0 mm 1 mps 714 mmHg 84%
    21:00 +6°C° 0 mm 1 mps 714 mmHg 88%
    22:00 +6°C° 0 mm 1 mps 714 mmHg 88%
    23:00 +5°C° 0 mm 1 mps 714 mmHg 88%

    Tomorrow, 23 February, Saturday

    Time Temperature Precipitation Wind Pressure Humidity
    00:00 +5°C° 0 mm 1 mps 714 mmHg 89%
    01:00 +6°C° 0 mm 1 mps 714 mmHg 88%
    02:00 +6°C° 0 mm 1 mps 714 mmHg 88%
    03:00 +6°C° 0 mm 2 mps 714 mmHg 87%
    04:00 +6°C° 0.1 mm 2 mps 714 mmHg 89%
    05:00 +6°C° 0.1 mm 2 mps 714 mmHg 90%
    06:00 +7°C° 0.1 mm 2 mps 714 mmHg 92%
    07:00 +8°C° 0 mm 2 mps 714 mmHg 88%
    08:00 +9°C° 0 mm 3 mps 715 mmHg 84%
    09:00 +10°C° 0 mm 3 mps 715 mmHg 81%
    10:00 +10°C° 0 mm 3 mps 715 mmHg 76%
    11:00 +11°C° 0 mm 4 mps 715 mmHg 72%
    12:00 +12°C° 0 mm 4 mps 715 mmHg 68%
    13:00 +12°C° 0 mm 5 mps 714 mmHg 65%
    14:00 +12°C° 0 mm 5 mps 714 mmHg 63%
    15:00 +12°C° 0 mm 5 mps 713 mmHg 60%
    16:00 +10°C° 0 mm 5 mps 713 mmHg 71%
    17:00 +8°C° 0 mm 5 mps 713 mmHg 81%
    18:00 +7°C° 0 mm 4 mps 713 mmHg 92%
    19:00 +7°C° 0.1 mm 5 mps 713 mmHg 93%
    20:00 +7°C° 0.1 mm 5 mps 714 mmHg 93%
    21:00 +5°C° 0.1 mm 6 mps 714 mmHg 94%
    22:00 +5°C° 0.1 mm 6 mps 714 mmHg 91%
    23:00 +5°C° 0.1 mm 5 mps 714 mmHg 88%

    Day after tomorrow, 24 February, Sunday

    Time Temperature Precipitation Wind Pressure Humidity
    00:00 +3°C° 0.1 mm 5 mps 714 mmHg 85%
    01:00 +3°C° 0 mm 4 mps 714 mmHg 85%
    02:00 +2°C° 0 mm 3 mps 714 mmHg 84%
    03:00 +1°C° 0 mm 2 mps 714 mmHg 83%
    04:00 +1°C° 0 mm 2 mps 714 mmHg 84%
    05:00 +1°C° 0 mm 2 mps 714 mmHg 85%
    06:00 -1°C° 0 mm 2 mps 714 mmHg 86%
    07:00 +2°C° 0 mm 2 mps 715 mmHg 79%
    08:00 +3°C° 0 mm 3 mps 715 mmHg 72%
    09:00 +4°C° 0 mm 4 mps 716 mmHg 65%
    10:00 +3°C° 0 mm 5 mps 716 mmHg 65%
    11:00 +5°C° 0 mm 5 mps 716 mmHg 65%
    12:00 +5°C° 0 mm 5 mps 716 mmHg 64%
    13:00 +4°C° 0 mm 6 mps 716 mmHg 64%
    14:00 +4°C° 0 mm 6 mps 716 mmHg 64%
    15:00 +4°C° 0 mm 6 mps 716 mmHg 64%
    16:00 +3°C° 0 mm 5 mps 716 mmHg 69%
    17:00 +4°C° 0 mm 4 mps 716 mmHg 73%
    18:00 +3°C° 0 mm 3 mps 716 mmHg 78%
    19:00 +3°C° 0 mm 2 mps 717 mmHg 82%
    20:00 +3°C° 0 mm 1 mps 717 mmHg 86%
    21:00 +2°C° 0 mm 1 mps 717 mmHg 90%
    22:00 +2°C° 0 mm 1 mps 717 mmHg 90%
    23:00 0°C° 0 mm 0 mps 717 mmHg 91%

    25 February, Monday

    Time Temperature Precipitation Wind Pressure Humidity
    00:00 0°C° 0 mm 0 mps 717 mmHg 91%
    01:00 0°C° 0 mm 0 mps 717 mmHg 91%
    02:00 0°C° 0 mm 0 mps 717 mmHg 90%
    03:00 +1°C° 0 mm 1 mps 716 mmHg 90%
    04:00 +1°C° 0 mm 1 mps 716 mmHg 90%
    05:00 +1°C° 0 mm 1 mps 716 mmHg 89%
    06:00 +1°C° 0 mm 1 mps 716 mmHg 89%
    07:00 +3°C° 0 mm 1 mps 717 mmHg 82%
    08:00 +4°C° 0 mm 2 mps 717 mmHg 75%
    09:00 +7°C° 0 mm 2 mps 718 mmHg 68%
    10:00 +7°C° 0 mm 3 mps 718 mmHg 66%
    11:00 +8°C° 0 mm 3 mps 718 mmHg 65%
    12:00 +7°C° 0 mm 4 mps 717 mmHg 64%
    13:00 +7°C° 0 mm 4 mps 717 mmHg 65%
    14:00 +7°C° 0 mm 4 mps 717 mmHg 67%
    15:00 +7°C° 0 mm 4 mps 716 mmHg 68%
    16:00 +6°C° 0.1 mm 4 mps 716 mmHg 75%
    17:00 +4°C° 0.1 mm 3 mps 716 mmHg 81%
    18:00 +4°C° 0.1 mm 2 mps 716 mmHg 87%
    19:00 +4°C° 0.1 mm 2 mps 716 mmHg 89%
    20:00 +4°C° 0.1 mm 1 mps 717 mmHg 91%
    21:00 +4°C° 0.1 mm 1 mps 717 mmHg 93%
    22:00 +3°C° 0 mm 1 mps 717 mmHg 93%
    23:00 +3°C° 0 mm 1 mps 716 mmHg 93%

    26 February, Tuesday

    Time Temperature Precipitation Wind Pressure Humidity
    00:00 +2°C° 0 mm 1 mps 716 mmHg 94%
    01:00 +1°C° 0 mm 0 mps 716 mmHg 94%
    02:00 +1°C° 0 mm 0 mps 716 mmHg 93%
    03:00 +1°C° 0 mm 0 mps 716 mmHg 93%
    04:00 +1°C° 0 mm 0 mps 716 mmHg 93%
    05:00 +2°C° 0 mm 1 mps 716 mmHg 93%
    06:00 +1°C° 0 mm 1 mps 716 mmHg 92%
    07:00 +4°C° 0 mm 1 mps 717 mmHg 84%
    08:00 +6°C° 0 mm 1 mps 717 mmHg 76%
    09:00 +8°C° 0 mm 1 mps 718 mmHg 68%
    10:00 +9°C° 0 mm 1 mps 718 mmHg 62%
    11:00 +10°C° 0 mm 1 mps 718 mmHg 56%
    12:00 +11°C° 0 mm 1 mps 718 mmHg 49%
    13:00 +11°C° 0 mm 1 mps 718 mmHg 50%
    14:00 +10°C° 0 mm 2 mps 718 mmHg 50%
    15:00 +12°C° 0 mm 2 mps 717 mmHg 51%
    16:00 +9°C° 0 mm 2 mps 717 mmHg 61%
    17:00 +7°C° 0 mm 2 mps 717 mmHg 71%
    18:00 +5°C° 0 mm 2 mps 717 mmHg 81%
    19:00 +5°C° 0 mm 1 mps 717 mmHg 84%
    20:00 +5°C° 0 mm 1 mps 717 mmHg 87%
    21:00 +3°C° 0 mm 0 mps 717 mmHg 90%
    22:00 +3°C° 0 mm 0 mps 717 mmHg 90%
    23:00 +2°C° 0 mm 0 mps 717 mmHg 91%

    27 February, Wednesday

    Time Temperature Precipitation Wind Pressure Humidity
    00:00 +3°C° 0 mm 1 mps 717 mmHg 91%
    01:00 +3°C° 0 mm 1 mps 717 mmHg 92%
    02:00 +3°C° 0 mm 1 mps 717 mmHg 92%
    03:00 +3°C° 0 mm 1 mps 716 mmHg 92%
    04:00 +2°C° 0 mm 1 mps 716 mmHg 92%
    05:00 +2°C° 0 mm 1 mps 716 mmHg 92%
    06:00 +2°C° 0 mm 1 mps 717 mmHg 92%
    07:00 +5°C° 0 mm 1 mps 717 mmHg 82%
    08:00 +7°C° 0 mm 1 mps 717 mmHg 73%
    09:00 +9°C° 0 mm 1 mps 718 mmHg 63%
    10:00 +10°C° 0 mm 1 mps 718 mmHg 57%
    11:00 +12°C° 0 mm 2 mps 717 mmHg 50%
    12:00 +13°C° 0 mm 2 mps 717 mmHg 44%
    13:00 +13°C° 0 mm 2 mps 717 mmHg 46%
    14:00 +12°C° 0 mm 3 mps 717 mmHg 49%
    15:00 +13°C° 0 mm 3 mps 716 mmHg 51%
    16:00 +10°C° 0 mm 3 mps 716 mmHg 63%
    17:00 +8°C° 0 mm 2 mps 716 mmHg 75%
    18:00 +6°C° 0 mm 2 mps 716 mmHg 87%
    19:00 +6°C° 0 mm 1 mps 716 mmHg 89%
    20:00 +6°C° 0 mm 1 mps 716 mmHg 91%
    21:00 +4°C° 0 mm 0 mps 716 mmHg 93%
    22:00 +4°C° 0 mm 0 mps 716 mmHg 93%
    23:00 +3°C° 0 mm 0 mps 716 mmHg 92%
    Show more